Tracking 19792 objects as of 16-Jul-2019
HD Live streaming from Space Station
objects crossing your sky now

FENGYUN 1C DEB

Track FENGYUN 1C DEB now!
10-day predictions


NORAD ID: 33664
Int'l Code: 1999-025DEZ
Perigee: 775.8 km
Apogee: 1,018.9 km
Inclination: 98.7 °
Period: 102.8 minutes
Semi major axis: 7268 km
RCS: 0.0059 m2 (small)
Launch date: May 10, 1999
Source: People's Republic of China (PRC)
Launch site: Taiyaun Space Center, China (TSC)

Note: This is SATELLITE DEBRIS
aabbcc
Your satellite tracking list
Your tracking list is empty




NASA's NSSDC Master Catalog

Two Line Element Set (TLE):
1 33664U 99025DEZ 19196.60603702 -.00000223 +00000-0 -10808-3 0  9996
2 33664 098.7328 070.4062 0167187 121.3015 240.4642 14.01039277579224
Source of the keplerian elements: AFSPC